BAW444 EHAM-EGLL

Flight info

Callsign BAW444
Flight time 0h 40m
Altitude 24000
Route IDRID L980 LOGAN
Aircraft A320/M-SDE3FGHIRWY/LB1

Departure

Time 2026-05-03 22:23
Airport Amsterdam Airport Schiphol (EHAM)

Arrival

Time 2026-05-03 23:04
Airport London Heathrow Airport (EGLL)
Time Latitude Longitude Altitude Speed Heading
2026-05-03 22:00 52.30694 4.77214 -2 ft 0 kts
2026-05-03 22:11 52.30693 4.77214 -2 ft 2 kts
2026-05-03 22:11 52.30668 4.77208 -2 ft 4 kts 19°
2026-05-03 22:11 52.30646 4.77188 -2 ft 4 kts 61°
2026-05-03 22:12 52.30642 4.77167 -2 ft 0 kts 93°
2026-05-03 22:14 52.30642 4.77173 -2 ft 2 kts 93°
2026-05-03 22:14 52.30640 4.77208 -2 ft 5 kts 93°
2026-05-03 22:14 52.30638 4.77280 -2 ft 9 kts 93°
2026-05-03 22:14 52.30640 4.77411 -2 ft 14 kts 86°
2026-05-03 22:15 52.30596 4.77525 -2 ft 14 kts 157°
2026-05-03 22:15 52.30510 4.77583 -3 ft 0 kts 176°
2026-05-03 22:20 52.30484 4.77586 -3 ft 8 kts 176°
2026-05-03 22:20 52.30402 4.77571 -3 ft 16 kts 205°
2026-05-03 22:20 52.30355 4.77487 -3 ft 0 kts 238°
2026-05-03 22:22 52.30334 4.77431 -4 ft 27 kts 238°
2026-05-03 22:23 52.30066 4.76731 -3 ft 116 kts 237°
2026-05-03 22:23 52.29516 4.75292 13 ft 178 kts 238°
2026-05-03 22:23 52.28841 4.73507 676 ft 181 kts 238°
2026-05-03 22:23 52.28169 4.71753 1290 ft 183 kts 238°
2026-05-03 22:24 52.27439 4.69982 1722 ft 197 kts 229°
2026-05-03 22:24 52.26455 4.68306 1902 ft 202 kts 233°
2026-05-03 22:24 52.25753 4.66467 2033 ft 179 kts 243°
2026-05-03 22:24 52.25210 4.64564 2308 ft 194 kts 246°
2026-05-03 22:25 52.24633 4.62448 2740 ft 216 kts 244°
2026-05-03 22:25 52.23915 4.60137 3169 ft 240 kts 242°
2026-05-03 22:25 52.23096 4.57624 3748 ft 258 kts 242°
2026-05-03 22:25 52.22276 4.54978 4610 ft 264 kts 249°
2026-05-03 22:26 52.21673 4.52141 5509 ft 267 kts 251°
2026-05-03 22:26 52.21070 4.49248 6414 ft 271 kts 251°
2026-05-03 22:26 52.20458 4.46322 7294 ft 274 kts 251°
2026-05-03 22:26 52.19832 4.43354 8153 ft 278 kts 251°
2026-05-03 22:27 52.19198 4.40357 8990 ft 281 kts 251°
2026-05-03 22:27 52.18553 4.37318 9806 ft 285 kts 251°
2026-05-03 22:27 52.17901 4.34243 10596 ft 289 kts 251°
2026-05-03 22:27 52.17242 4.31125 11242 ft 299 kts 251°
2026-05-03 22:28 52.16541 4.27808 11466 ft 322 kts 251°
2026-05-03 22:28 52.15782 4.24237 11633 ft 345 kts 251°
2026-05-03 22:28 52.14973 4.20434 11759 ft 366 kts 251°
2026-05-03 22:28 52.14127 4.16466 11901 ft 385 kts 251°
2026-05-03 22:29 52.13235 4.12288 12302 ft 394 kts 251°
2026-05-03 22:29 52.12331 4.08061 12882 ft 398 kts 251°
2026-05-03 22:29 52.11416 4.03781 13479 ft 402 kts 251°
2026-05-03 22:29 52.10491 3.99471 14068 ft 405 kts 251°
2026-05-03 22:30 52.09553 3.95132 14652 ft 408 kts 251°
2026-05-03 22:30 52.08604 3.90759 15189 ft 412 kts 250°
2026-05-03 22:30 52.07645 3.86354 15724 ft 415 kts 250°
2026-05-03 22:30 52.06679 3.81908 16238 ft 418 kts 250°
2026-05-03 22:31 52.05708 3.77442 16760 ft 421 kts 251°
2026-05-03 22:31 52.04729 3.72937 17266 ft 424 kts 250°
2026-05-03 22:31 52.03741 3.68409 17759 ft 427 kts 250°
2026-05-03 22:31 52.02744 3.63850 18249 ft 430 kts 250°
2026-05-03 22:32 52.01736 3.59270 18726 ft 433 kts 250°
2026-05-03 22:32 52.00719 3.54652 19199 ft 436 kts 250°
2026-05-03 22:32 51.99534 3.50099 19648 ft 439 kts 243°
2026-05-03 22:32 51.97946 3.45870 19941 ft 441 kts 234°
2026-05-03 22:33 51.96134 3.41847 20000 ft 441 kts 234°
2026-05-03 22:33 51.94315 3.37840 20011 ft 441 kts 233°
2026-05-03 22:33 51.92496 3.33846 20009 ft 441 kts 233°
2026-05-03 22:33 51.90676 3.29853 20009 ft 441 kts 233°
2026-05-03 22:34 51.88856 3.25857 20010 ft 441 kts 233°
2026-05-03 22:34 51.87133 3.21755 20099 ft 444 kts 240°
2026-05-03 22:34 51.85771 3.17263 20602 ft 445 kts 248°
2026-05-03 22:34 51.84807 3.12493 21126 ft 449 kts 257°
2026-05-03 22:35 51.84299 3.07488 21916 ft 454 kts 263°
2026-05-03 22:35 51.83948 3.02395 22695 ft 459 kts 264°
2026-05-03 22:35 51.83606 2.97238 23420 ft 464 kts 264°
2026-05-03 22:35 51.83267 2.91991 23843 ft 477 kts 264°
2026-05-03 22:36 51.82916 2.86551 23984 ft 495 kts 264°
2026-05-03 22:36 51.82557 2.80989 24780 ft 494 kts 264°
2026-05-03 22:36 51.82206 2.75532 25919 ft 478 kts 264°
2026-05-03 22:36 51.81866 2.70326 26777 ft 459 kts 264°
2026-05-03 22:37 51.81521 2.65247 26335 ft 450 kts 263°
2026-05-03 22:37 51.81170 2.60251 25679 ft 446 kts 263°
2026-05-03 22:37 51.80816 2.55297 25036 ft 441 kts 263°
2026-05-03 22:37 51.80464 2.50389 24402 ft 437 kts 263°
2026-05-03 22:38 51.80117 2.45522 24083 ft 436 kts 263°
2026-05-03 22:38 51.79773 2.40665 23983 ft 435 kts 263°
2026-05-03 22:38 51.79428 2.35807 24010 ft 436 kts 263°
2026-05-03 22:38 51.79082 2.30934 24013 ft 436 kts 263°
2026-05-03 22:39 51.78737 2.26117 24011 ft 436 kts 263°
2026-05-03 22:39 51.78381 2.21169 24012 ft 453 kts 263°
2026-05-03 22:39 51.78053 2.16175 24005 ft 441 kts 264°
2026-05-03 22:39 51.77765 2.11259 24009 ft 438 kts 265°
2026-05-03 22:40 51.77494 2.06371 24009 ft 437 kts 265°
2026-05-03 22:40 51.77224 2.01484 24009 ft 437 kts 265°
2026-05-03 22:40 51.76947 1.96597 24009 ft 436 kts 264°
2026-05-03 22:40 51.76662 1.91723 24009 ft 436 kts 264°
2026-05-03 22:41 51.76370 1.86847 23980 ft 435 kts 264°
2026-05-03 22:41 51.76076 1.82010 23640 ft 433 kts 264°
2026-05-03 22:41 51.75776 1.77183 23212 ft 431 kts 264°
2026-05-03 22:41 51.75472 1.72376 22786 ft 429 kts 264°
2026-05-03 22:42 51.75167 1.67602 22360 ft 426 kts 264°
2026-05-03 22:42 51.74865 1.62865 21936 ft 424 kts 264°
2026-05-03 22:42 51.74566 1.58142 21510 ft 421 kts 264°
2026-05-03 22:42 51.74269 1.53458 21084 ft 418 kts 264°
2026-05-03 22:43 51.73972 1.48798 20662 ft 416 kts 264°
2026-05-03 22:43 51.73676 1.44180 20234 ft 413 kts 264°
2026-05-03 22:43 51.73480 1.41130 19951 ft 411 kts 264°
2026-05-03 22:43 51.73183 1.36561 19528 ft 409 kts 264°
2026-05-03 22:44 51.72789 1.30535 18958 ft 405 kts 264°
2026-05-03 22:44 51.72587 1.27485 18673 ft 403 kts 264°
2026-05-03 22:44 51.72287 1.23001 18243 ft 401 kts 264°
2026-05-03 22:44 51.71987 1.18539 17823 ft 398 kts 264°
2026-05-03 22:45 51.71691 1.14115 17397 ft 396 kts 264°
2026-05-03 22:45 51.71393 1.09708 16960 ft 393 kts 264°
2026-05-03 22:45 51.71099 1.05398 16522 ft 391 kts 264°
2026-05-03 22:45 51.70800 1.01058 16115 ft 388 kts 264°
2026-05-03 22:46 51.70499 0.96689 15983 ft 387 kts 264°
2026-05-03 22:46 51.70206 0.92447 15867 ft 383 kts 264°
2026-05-03 22:46 51.69912 0.88195 15694 ft 369 kts 263°
2026-05-03 22:46 51.69633 0.84192 15361 ft 360 kts 263°
2026-05-03 22:47 51.69357 0.80214 14979 ft 354 kts 263°
2026-05-03 22:47 51.69080 0.76306 14604 ft 348 kts 263°
2026-05-03 22:47 51.68807 0.72459 14229 ft 343 kts 263°
2026-05-03 22:47 51.68538 0.68668 13853 ft 338 kts 263°
2026-05-03 22:48 51.68273 0.64924 13478 ft 334 kts 263°
2026-05-03 22:48 51.68008 0.61219 13102 ft 331 kts 263°
2026-05-03 22:48 51.67744 0.57557 12724 ft 328 kts 263°
2026-05-03 22:48 51.67479 0.53925 12351 ft 325 kts 263°
2026-05-03 22:49 51.67218 0.50327 11967 ft 323 kts 263°
2026-05-03 22:49 51.66957 0.46752 11600 ft 320 kts 262°
2026-05-03 22:49 51.66799 0.43142 11221 ft 318 kts 270°
2026-05-03 22:49 51.66833 0.39639 10850 ft 316 kts 271°
2026-05-03 22:50 51.66886 0.36108 10474 ft 314 kts 271°
2026-05-03 22:50 51.66939 0.32644 10094 ft 302 kts 271°
2026-05-03 22:50 51.66990 0.29328 9719 ft 291 kts 271°
2026-05-03 22:50 51.66963 0.26143 9345 ft 280 kts 261°
2026-05-03 22:51 51.66423 0.23198 9042 ft 267 kts 250°
2026-05-03 22:51 51.65803 0.20480 8998 ft 250 kts 250°
2026-05-03 22:51 51.65327 0.17796 8939 ft 248 kts 264°
2026-05-03 22:51 51.65266 0.15035 8492 ft 246 kts 270°
2026-05-03 22:52 51.65292 0.12292 8118 ft 242 kts 271°
2026-05-03 22:52 51.65330 0.09586 8068 ft 245 kts 271°
2026-05-03 22:52 51.65369 0.06832 8069 ft 246 kts 271°
2026-05-03 22:52 51.65408 0.04063 8077 ft 256 kts 271°
2026-05-03 22:53 51.65451 0.01070 8065 ft 265 kts 271°
2026-05-03 22:53 51.65492 -0.01825 8067 ft 252 kts 271°
2026-05-03 22:53 51.65531 -0.04615 8067 ft 247 kts 271°
2026-05-03 22:53 51.65569 -0.07377 8068 ft 246 kts 270°
2026-05-03 22:54 51.65365 -0.09683 8070 ft 246 kts 248°
2026-05-03 22:54 51.64366 -0.11895 8075 ft 258 kts 217°
2026-05-03 22:54 51.62716 -0.13101 8066 ft 259 kts 188°
2026-05-03 22:54 51.60975 -0.12874 7994 ft 250 kts 159°
2026-05-03 22:55 51.59547 -0.11349 7771 ft 247 kts 135°
2026-05-03 22:55 51.58374 -0.09339 7493 ft 247 kts 131°
2026-05-03 22:55 51.57241 -0.07274 7236 ft 246 kts 131°
2026-05-03 22:55 51.56117 -0.05208 6973 ft 245 kts 131°
2026-05-03 22:56 51.54998 -0.03146 6709 ft 244 kts 131°
2026-05-03 22:56 51.53874 -0.01157 6583 ft 236 kts 140°
2026-05-03 22:56 51.52449 -0.00047 6456 ft 225 kts 172°
2026-05-03 22:56 51.50915 0.00112 6346 ft 216 kts 180°
2026-05-03 22:57 51.49434 0.00107 6214 ft 209 kts 181°
2026-05-03 22:57 51.48023 -0.00086 6067 ft 200 kts 201°
2026-05-03 22:57 51.46941 -0.01355 5866 ft 193 kts 235°
2026-05-03 22:57 51.46461 -0.03339 5551 ft 194 kts 266°
2026-05-03 22:58 51.46775 -0.05448 5071 ft 204 kts 302°
2026-05-03 22:58 51.47129 -0.06314 4841 ft 209 kts 302°
2026-05-03 22:58 51.47184 -0.06451 4799 ft 209 kts 301°
2026-05-03 22:59 51.47684 -0.08671 4332 ft 216 kts 278°
2026-05-03 22:59 51.47799 -0.11074 3992 ft 216 kts 271°
2026-05-03 22:59 51.47811 -0.13481 3706 ft 214 kts 270°
2026-05-03 22:59 51.47809 -0.15810 3548 ft 201 kts 270°
2026-05-03 23:00 51.47807 -0.18055 3060 ft 204 kts 270°
2026-05-03 23:00 51.47805 -0.20344 2563 ft 206 kts 270°
2026-05-03 23:00 51.47803 -0.22661 2104 ft 206 kts 270°
2026-05-03 23:00 51.47798 -0.24867 1850 ft 188 kts 269°
2026-05-03 23:01 51.47786 -0.26836 1697 ft 168 kts 269°
2026-05-03 23:01 51.47765 -0.28662 1511 ft 160 kts 269°
2026-05-03 23:01 51.47751 -0.30484 1516 ft 171 kts 270°
2026-05-03 23:01 51.47753 -0.32415 1372 ft 173 kts 271°
2026-05-03 23:02 51.47804 -0.34261 1037 ft 159 kts 272°
2026-05-03 23:02 51.47827 -0.35885 893 ft 141 kts 270°
2026-05-03 23:02 51.47821 -0.37465 724 ft 140 kts 269°
2026-05-03 23:02 51.47796 -0.39002 570 ft 139 kts 269°
2026-05-03 23:03 51.47789 -0.40535 416 ft 136 kts 270°
2026-05-03 23:03 51.47785 -0.42050 262 ft 135 kts 270°
2026-05-03 23:03 51.47777 -0.43525 122 ft 128 kts 269°
2026-05-03 23:03 51.47760 -0.44854 89 ft 107 kts 269°
2026-05-03 23:04 51.47756 -0.45911 87 ft 81 kts 270°
2026-05-03 23:04 51.47750 -0.46494 89 ft 30 kts 259°
2026-05-03 23:04 51.47669 -0.46813 89 ft 26 kts 240°
2026-05-03 23:04 51.47588 -0.46944 89 ft 14 kts 244°
2026-05-03 23:05 51.47577 -0.47110 87 ft 17 kts 270°
2026-05-03 23:05 51.47581 -0.47298 89 ft 0 kts 271°
2026-05-03 23:06 51.47581 -0.47332 90 ft 6 kts 271°
2026-05-03 23:06 51.47582 -0.47437 90 ft 14 kts 270°
2026-05-03 23:06 51.47582 -0.47648 88 ft 23 kts 267°
2026-05-03 23:06 51.47580 -0.47935 88 ft 28 kts 269°
2026-05-03 23:07 51.47580 -0.48279 88 ft 33 kts 270°
2026-05-03 23:07 51.47542 -0.48485 87 ft 12 kts 176°
2026-05-03 23:07 51.47440 -0.48476 86 ft 18 kts 179°
2026-05-03 23:07 51.47300 -0.48476 86 ft 23 kts 179°
2026-05-03 23:08 51.47124 -0.48474 86 ft 28 kts 180°
2026-05-03 23:08 51.47050 -0.48519 90 ft 2 kts 257°
2026-05-03 23:08 51.47048 -0.48556 90 ft 5 kts 268°
2026-05-03 23:08 51.47049 -0.48585 90 ft 0 kts 270°
2026-05-03 23:09 51.47049 -0.48590 90 ft 0 kts 270°